カタログに戻る

STARLINK-1704

運用中通信VLEO
NORAD 47625·PAYLOAD·🇺🇸 United States

打ち上げ Feb 16, 2021 から Cape Canaveral Space Force Station

Loading…

次のパス (今後24時間)

TLE

最新Source: CelesTrak SupGP

元期: Sep 15, 2026, 02:19 UTC

1 47625C 21012F   26258.09701389  .00177980  00000+0  74583-3 0  2589
2 47625  53.0360 217.0780 0007165  87.5773 126.1960 15.84726705    15

AllMySatでSTARLINK-1704をリアルタイム追跡

Download on the App Store